Location: *
(37.9500°N, 27.3666°E)
Time: 05:10:18
(UTC+00:00)

Cosmos 1892 - Pass Details

Date: 24 October 2021
Orbit: 501 x 522 km, 82.5° (Epoch: 03 December)

Event Time Altitude Azimuth Distance (km) Brightness Sun altitude
Rises 17:12:20 0° 350° (N) 2,608 6.4 -22.6°
Reaches altitude 10° 17:14:28 10° 348° (NNW) 1,718 5.5 -23.0°
Enters shadow 17:17:51 64° 305° (NW) 559 2.9 -23.7°
